Weather History for Livingston, MT

Change the Weather History Date:

Monday, January 27, 2014

  Actual Average Record
Temperature  
Mean Temperature 19 °F 27 °F  
Max Temperature 28 °F 37 °F 57 °F (1986)
Min Temperature 9 °F 18 °F -29 °F (1972)
Degree Days  
Heating Degree Days 46 38  
Month to date heating degree days 827 1030  
Since 1 July heating degree days 3782 4195  
Moisture  
Dew Point -2 °F    
Average Humidity 42    
Maximum Humidity 61    
Minimum Humidity 23    
Precipitation  
Precipitation 0.00 in 0.02 in 0.23 in (1995)
Month to date precipitation 0.19 0.43  
Year to date precipitation 0.19 0.43  
Sea Level Pressure  
Sea Level Pressure 30.36 in    
Wind  
Wind Speed 10 mph (WNW)    
Max Wind Speed 17 mph    
Max Gust Speed 21 mph    
Visibility 10 miles    
Events      
T = Trace of Precipitation, MM = Missing Value Source: NWS Daily Summary

Daily Weather History Graph

Daily Weather History Graph

Search for Another Location

Airport:

Trip Planner

Search our weather history database for the weather conditions in past years. The results will help you decide how hot, cold, wet, or windy it might be!

Date:

Astronomy

Jan. 27, 2014 Rise Set
Actual Time 7:48 AM MST 5:20 PM MST
Civil Twilight 7:16 AM MST 5:53 PM MST
Nautical Twilight 6:40 AM MST 6:29 PM MST
Astronomical Twilight 6:05 AM MST 7:04 PM MST
Moon 4:35 AM MST (1/27) 2:07 PM MST (1/27)
Length of Visible Light 10h 36m
Length of Day
9h 32m
Waning Crescent, 14% of the Moon is Illuminated
Jan 27
Waning Crescent
Jan 30
New
Feb 6
First Quarter
Feb 14
Full
Feb 22
Last Quarter

Hourly Weather History & Observations

Time (MST) Temp. Windchill Dew Point Humidity Pressure Visibility Wind Dir Wind Speed Gust Speed Precip Events Conditions
12:53 AM 19.0 °F 8.2 °F 1.0 °F 46% 30.28 in 10.0 mi West 9.2 mph - N/A   Overcast
1:53 AM 19.0 °F 6.8 °F -0.0 °F 43% 30.29 in 10.0 mi NW 11.5 mph - N/A   Overcast
2:53 AM 19.0 °F 7.5 °F -0.0 °F 43% 30.30 in 10.0 mi WNW 10.4 mph - N/A   Overcast
3:53 AM 19.0 °F 6.1 °F -0.9 °F 42% 30.32 in 10.0 mi WNW 12.7 mph - N/A   Overcast
4:53 AM 18.0 °F 4.8 °F -2.9 °F 40% 30.32 in 10.0 mi West 12.7 mph - N/A   Overcast
5:53 AM 18.0 °F 4.2 °F -2.9 °F 40% 30.32 in 10.0 mi WNW 13.8 mph - N/A   Mostly Cloudy
6:53 AM 15.1 °F 3.3 °F -4.0 °F 43% 30.35 in 10.0 mi WNW 9.2 mph - N/A   Partly Cloudy
7:53 AM 12.0 °F -0.4 °F -4.0 °F 49% 30.37 in 10.0 mi West 9.2 mph - N/A   Clear
8:53 AM 18.0 °F 7.7 °F -4.0 °F 38% 30.36 in 10.0 mi West 8.1 mph - N/A   Clear
9:53 AM 19.9 °F 8.6 °F -6.0 °F 32% 30.38 in 10.0 mi WNW 10.4 mph - N/A   Clear
10:53 AM 23.0 °F 11.1 °F -7.1 °F 27% 30.36 in 10.0 mi NW 12.7 mph - N/A   Clear
11:53 AM 25.0 °F 13.1 °F -5.1 °F 27% 30.35 in 10.0 mi NW 13.8 mph - N/A   Clear
12:53 PM 28.0 °F 19.3 °F -6.0 °F 23% 30.32 in 10.0 mi NNW 9.2 mph - N/A   Clear
1:53 PM 27.0 °F 17.3 °F -2.9 °F 27% 30.31 in 10.0 mi NNW 10.4 mph - N/A   Clear
2:53 PM 24.1 °F 13.7 °F -2.0 °F 32% 30.33 in 10.0 mi North 10.4 mph - N/A   Clear
3:53 PM 23.0 °F 10.6 °F -0.9 °F 35% 30.35 in 10.0 mi North 13.8 mph - N/A   Scattered Clouds
4:53 PM 19.9 °F 13.4 °F -2.0 °F 38% 30.38 in 10.0 mi West 4.6 mph - N/A   Clear
5:53 PM 19.0 °F 6.1 °F 1.0 °F 46% 30.41 in 10.0 mi WNW 12.7 mph - N/A   Partly Cloudy
6:53 PM 18.0 °F 12.7 °F 1.9 °F 50% 30.43 in 10.0 mi Variable 3.5 mph - N/A   Clear
7:53 PM 19.0 °F - 1.9 °F 47% 30.45 in 10.0 mi Calm Calm - N/A   Clear
8:53 PM 17.1 °F 2.5 °F 1.9 °F 52% 30.43 in 10.0 mi NW 15.0 mph - N/A   Clear
9:53 PM 12.0 °F 0.5 °F 1.0 °F 61% 30.46 in 10.0 mi WSW 8.1 mph - N/A   Clear
10:53 PM 12.0 °F -1.3 °F -0.0 °F 59% 30.44 in 10.0 mi West 10.4 mph - N/A   Clear
11:53 PM 9.0 °F -4.2 °F 1.0 °F 70% 30.45 in 10.0 mi NW 9.2 mph - N/A   Clear